Regional Weather Roundup
Issued by NWS

Home | Current Version | Previous Version | Text Only | Print | Product List | Glossary On
Versions: 1 2 3 4 5 6 7 8 9 10 11 12 13 14 15 16 17 18 19 20 21 22 23 24 25 26 27 28 29 30 31 32 33 34 35 36 37 38 39 40 41 42 43 44 45 46 47 48 49 50
000
ASUS44 KFWD 150515
RWRTX
NORTH TEXAS HOURLY WEATHER ROUNDUP
NATIONAL WEATHER SERVICE FORT WORTH TX
1100 PM CST THU DEC 14 2017

NOTE: "FAIR" INDICATES FEW OR NO CLOUDS BELOW 12,000 FEET WITH NO
SIGNIFICANT WEATHER AND/OR OBSTRUCTIONS TO VISIBILITY.

TXZ118-119-150600-
DALLAS/FORT WORTH METROPLEX

CITY           SKY/WX    TMP DP  RH WIND       PRES   REMARKS
DFW AIRPORT    MOCLDY    45  29  53 N10       30.22R WCI  40
DALLAS LOVE    MOCLDY    46  28  49 N8        30.23R
FTW MEACHAM    PTCLDY    45  27  49 N9        30.24R
DAL-EXECUTIVE  CLEAR     45  28  51 N10       30.21R WCI  40
FTW-ALLIANCE   MOCLDY    40  26  57 CALM      30.24R
FTW-NAS-JRB    PTCLDY    44  27  51 N7        30.25R
FTW-SPINKS     CLEAR     43  27  52 N9        30.25R WCI  37
ARLINGTON      CLEAR     46  27  47 NW12      30.23R
GRAND PRAIRIE  CLEAR     47  26  43 NW7       30.24R
ADDISON        CLEAR     43  28  54 N7        30.24S WCI  39
MESQUITE       CLEAR     42  28  57 NW8       30.23R WCI  36
LANCASTER      CLEAR     40  24  51 N5        30.23R WCI  37
$$

TXZ091>094-102>105-117-120-121-131>134-150600-
NORTH CENTRAL TEXAS

CITY           SKY/WX    TMP DP  RH WIND       PRES   REMARKS
SHRMAN/DENISON CLEAR     35  27  72 SW3       30.23R
GAINESVILLE    CLEAR     34  24  67 CALM      30.25R
BOWIE          CLEAR     31  25  77 CALM      30.23R
BRIDGEPORT     CLEAR     32  25  74 SW3       30.26R
DECATUR        CLEAR     41  25  53 CALM      30.22R
DENTON         CLEAR     36  25  64 W3        30.24R
MCKINNEY       CLEAR     40  26  57 NW7       30.23R WCI  35
BONHAM         CLEAR     37  25  61 W3        30.22R
GREENVILLE     CLEAR     41  30  65 CALM      30.23R
ROCKWALL       CLEAR     42  28  56 N6        30.23R WCI  39
TERRELL        CLEAR     43  26  51 N7        30.22S WCI  39
WAXAHACHIE     PTCLDY    43  29  59 N8        30.23R WCI  38
CLEBURNE       MOCLDY    37  27  65 N7        30.24S WCI  32
GRANBURY       CLEAR     44  28  53 NW6       30.26R
$$

TXZ083>090-098>101-113>116-127>130-139>142-154-155-150600-
WESTERN NORTH TEXAS

CITY           SKY/WX    TMP DP  RH WIND       PRES   REMARKS
WICHITA FALLS  CLEAR     36  25  64 W3        30.23R
WF-KICKAPOO    CLEAR     39  26  60 W6        30.26R WCI  35
VERNON         PTCLDY    38  22  53 W8        30.26R WCI  32
ABILENE        CLEAR     37  25  61 N3        30.27R
ABILENE-DYESS  CLEAR     34  23  63 NW5       30.27R WCI  30
GRAHAM           N/A     32  25  74 CALM      30.25R
BRECKENRIDGE   PTCLDY    38  26  63 CALM      30.26R
CISCO          MOCLDY    41  27  56 N5        30.26R WCI  38
EASTLAND       CLEAR     38  25  60 N3        30.25S
RANGER         CLEAR     36  26  68 N3        30.25R
MINERAL WELLS  PTCLDY    39  24  55 CALM      30.24R
STEPHENVILLE   CLEAR     42  26  54 N9        30.26R WCI  36
COMANCHE       CLOUDY    40  28  64 NW8       30.25R WCI  34
BROWNWOOD      CLOUDY    41  27  56 NW7       30.25R WCI  36
COLEMAN        MOCLDY    40  26  56 N7        30.26R WCI  35
$$

TXZ143>147-156>162-174-175-150600-
CENTRAL TEXAS

CITY           SKY/WX    TMP DP  RH WIND       PRES   REMARKS
WACO           PTCLDY    46  27  47 N8        30.20R
WACO-TSTC      CLEAR     48  28  46 N9        30.20R
WACO-MCGREGOR  PTCLDY    47  29  49 N10       30.20R
HILLSBORO      CLOUDY    40  27  59 N8        30.22R WCI  35
CORSICANA      CLEAR     45  28  51 N10       30.21R WCI  40
MEXIA          PTCLDY    47  26  44 N12G18    30.18R
HEARNE         CLOUDY    51  29  42 N12       30.18R
CAMERON        CLOUDY    51  30  45 N10G17    30.17S
TEMPLE         CLOUDY    47  29  49 N12       30.19R
KILLEEN        CLEAR     47  27  46 N10       30.19R
KILLEEN-SKYLRK CLOUDY    49  28  44 N14       30.19R
FORT HOOD      CLOUDY    48  28  45 N13       30.15R
GATESVILLE     CLOUDY    46  27  46 N8        30.22R
HAMILTON       MOCLDY    45  28  52 N10       30.22R WCI  39
LAMPASAS       CLOUDY    47  27  46 N9        30.19R
$$

TXZ095>097-106>112-122>126-135>138-148>153-164>167-150600-
EAST TEXAS

CITY           SKY/WX    TMP DP  RH WIND       PRES   REMARKS
PARIS          PTCLDY    38  27  64 NW3       30.22R
SULPHUR SPRNGS CLEAR     42  30  62 N7        30.24S WCI  38
MOUNT PLEASANT PTCLDY    42  28  59 N8        30.22R WCI  37
GILMER         CLOUDY    44  28  53 NW9       30.19R WCI  39
MINEOLA        CLEAR     41  27  56 N5        30.21R WCI  38
TYLER          PTCLDY    45  27  49 N13       30.18R WCI  39
LONGVIEW       PTCLDY    47  31  53 N14       30.17R
MARSHALL       PTCLDY    45  29  52 N6        30.19R
ATHENS         PTCLDY    43  27  52 N10       30.19R WCI  37
PALESTINE      PTCLDY    46  29  51 N10       30.18S
JACKSONVILLE   CLEAR     46  30  52 N6        30.18R
HENDERSON      PTCLDY    46  29  51 N6        30.17S
CENTER         PTCLDY    43  31  62 NW3       30.15R
NACOGDOCHES    PTCLDY    47  31  53 N7        30.15R
LUFKIN         CLOUDY    49  33  54 N8        30.14R
$$

SUPPLEMENTAL OBSERVATIONS (NWS FORT WORTH AREA)

CITY           SKY/WX    TMP DP  RH WIND       PRES   REMARKS
DENISON DAM      N/A     45  32  61 SW2         N/A
CADDO GRASSLND   N/A     36  30  80 S2          N/A
PAT MAYSE LAKE   N/A     39  27  60 CALM        N/A
GREENVILLE       N/A     39  27  60 N6          N/A  WCI  35
CEDAR HILL       N/A     45  30  57 VRB5        N/A
LBJ GRASSLAND    N/A     36  25  64 CALM        N/A
POSSUM KINGDOM   N/A     41  27  56 SW3         N/A
GRANBURY         N/A     43  27  52 NW7         N/A  WCI  39
COMANCHE         N/A     39  27  60 NW9         N/A  WCI  33
MCGREGOR         N/A     46  30  53 N5          N/A
TEMPLE           N/A     50  28  43 N17         N/A
LAKE LIMESTONE   N/A     48  30  49 N9          N/A
ATHENS           N/A     45  28  53 N5          N/A
$$

SUPPLEMENTAL OBSERVATIONS (NWS NORMAN AREA)

CITY           SKY/WX    TMP DP  RH WIND       PRES   REMARKS
GOODLETT         N/A     41  27  58 NW10      30.27R WCI  34
ODELL            N/A     33  25  73 W7        30.27R WCI  27
CROWELL          N/A     42  28  58 NW10      30.27R WCI  36
KNOX CITY        N/A     36  22  58 W7        30.28S WCI  30
SEYMOUR          N/A     33  23  66 W3        30.26S
$$

SUPPLEMENTAL OBSERVATIONS (NWS SAN ANGELO AREA)

CITY           SKY/WX    TMP DP  RH WIND       PRES   REMARKS
WEINERT          N/A     35  21  56 W6        30.27S WCI  30
HASKELL          N/A     35  22  60 W6        30.28R WCI  30
THROCKMORTON     N/A     37  28  69 SW3       30.27S
STAMFORD         N/A     33  21  60 W7        30.29R WCI  27
CLYDE            N/A     38  25  58 NE7       30.27S WCI  33
HAMBY            N/A     32  23  69 CALM        N/A
IVIE RESERVOIR   N/A     43  27  52 N6          N/A  WCI  39
COLORADO BEND    N/A     46  28  49 VRB5        N/A
$$

SUPPLEMENTAL OBSERVATIONS (NWS SHREVEPORT AREA)

CITY           SKY/WX    TMP DP  RH WIND       PRES   REMARKS
CLARKSVILLE      N/A     39  28  65 NW5         N/A  WCI  36
TEXARKANA        N/A     45  30  57 N5          N/A
LINDEN           N/A     43  28  56 N2          N/A
CADDO LAKE       N/A     37  30  75 CALM        N/A
GILMER           N/A     45  28  53 N6          N/A
HENDERSON        N/A     46  28  49 N8          N/A
LUFKIN           N/A     48  32  53 MISG        N/A
N SABINE NF      N/A     39  36  87 MISG        N/A
S SABINE NF      N/A     43  41  93 NW2         N/A
$$

SUPPLEMENTAL OBSERVATIONS ARE A COLLECTION OF AUTOMATED INSTRUMENTS
THAT ARE MAINTAINED BY A VARIETY OF FEDERAL AND STATE AGENCIES.
CERTAIN ELEMENTS...SUCH AS HUMIDITY VALUES AND SUSTAINED WIND
SPEEDS...MAY BE APPROXIMATED.





USA.gov is the U.S. government's official web portal to all federal, state and local government web resources and services.